Location: Chittendens Corners
(41.2320°N, 81.4940°W)
Time: 09:36:45
(UTC+00:00)

CSL-04 Rocket - Pass Details

Date: 29 October 2020
Orbit: 805 x 861 km, 98.9° (Epoch: 26 November)

Event Time Altitude Azimuth Distance (km) Brightness Sun altitude
Exits shadow 23:39:11 - 135° (SE) 2,899 6.1 -14.6°
Reaches altitude 10° 23:40:19 10° 131° (SE) 2,489 5.7 -14.8°
Maximum altitude 23:45:17 35° 67° (ENE) 1,351 4.3 -15.7°
Drops below altitude 10° 23:50:13 10° 4° (N) 2,483 6.1 -16.6°
Sets 23:52:45 0° 355° (N) 3,415 6.9 -17.1°
